[[{"header":{"parameterUnit":"m.s-1","parameterCategory":1,"la1":30.2991,"la2":30.254,"lo1":-89.0895,"lo2":-89.0444,"dy":0.0017,"dx":0.0017,"nx":28,"ny":28,"refTime":"2024-10-15T09:00:00:Z","depth":0,"parameterNumber":2,"parameterNumberName":"U-component_of_WINDS"},"data":[0,0,0,0,0,0,0,0,0,0,0,0,0,0,0,0,0,0,0,0,0,0,0,0,0,0,0,0,0,0,0,0,0,0,0,0,0,0,0,0,0,0,0,0,0,0,0,0,0,0,0,0,0,0,0,0,0,0,-4.5535,-4.5536,0,-4.5584,-4.5584,-4.5585,-4.5522,-4.5519,-4.5517,-4.5515,-4.5562,-4.5565,-4.5569,0,0,0,0,0,0,0,0,0,0,0,0,0,-4.5385,-4.5388,-4.5535,-4.5536,-4.5536,-4.5584,-4.5584,-4.5585,-4.5522,-4.5519,-4.5517,-4.5514,-4.5561,-4.5565,-4.5569,0,0,0,0,0,0,0,0,0,0,0,0,0,-4.5444,-4.5389,-4.5535,-4.5511,-4.5509,-4.5583,-4.5584,-4.5585,-4.5523,-4.5519,-4.5516,-4.5513,-4.556,-4.5565,-4.557,-4.5669,0,0,-4.5585,-4.5587,0,0,0,0,0,0,0,0,-4.5441,-4.5449,-4.5514,-4.5513,-4.5511,-4.5543,-4.5549,-4.5613,-4.5524,-4.5517,-4.5515,-4.5511,-4.5558,-4.5563,-4.558,-4.5672,-4.5674,-4.5586,-4.5589,-4.5591,-4.5592,0,0,0,0,0,0,0,-4.5437,-4.5447,-4.5554,-4.5515,-4.5513,-4.5496,-4.5501,-4.5561,-4.5556,-4.5518,-4.5513,-4.552,-4.5557,-4.5575,-4.5581,-4.5674,-4.5586,-4.559,-4.5593,-4.5595,-4.585,-4.5853,0,0,0,0,0,0,-4.5436,-4.5444,-4.5553,-4.5556,-4.5467,-4.5502,-4.5507,-4.5536,-4.5556,-4.5555,-4.5523,-4.5517,-4.5568,-4.5575,-4.5582,-4.57,-4.5591,-4.5596,-4.5599,-4.5846,-4.5851,-4.5855,0,0,0,0,0,0,-4.5433,-4.5446,-4.5551,-4.5499,-4.5511,-4.5508,-4.5541,-4.5539,-4.5557,-4.556,-4.5558,-4.5543,-4.5566,-4.5575,-4.5648,-4.5701,-4.5598,-4.5603,-4.5842,-4.5847,-4.5853,-4.5937,0,0,0,0,0,0,-4.5429,-4.5445,-4.5484,-4.55,-4.5514,-4.5617,-4.5545,-4.5542,-4.5566,-4.5559,-4.5578,-4.5577,-4.5564,-4.5641,-4.5653,-4.5706,-4.5606,-4.5837,-4.5844,-4.5851,-4.593,-4.5945,-4.5958,0,0,0,0,0,-4.5424,-4.5506,-4.5486,-4.55,-4.5562,-4.5621,-4.5628,-4.5612,-4.5571,-4.5609,-4.5611,-4.5577,-4.5693,-4.5649,-4.5662,-4.5717,-4.5834,-4.5842,-4.585,-4.5924,-4.5942,-4.5958,0,0,0,0,0,0,-4.5495,-4.5507,-4.5486,-4.5576,-4.5598,-4.561,-4.5658,-4.5632,-4.5665,-4.5657,-4.5634,-4.5639,-4.5717,-4.5724,-4.5675,-4.5815,-4.5756,-4.5768,-4.5808,-4.5825,-4.5839,-4.5836,-4.5611,0,0,0,0,0,-4.5521,-4.5569,-4.5576,-4.5655,-4.5667,-4.5661,-4.5685,-4.5671,-4.5692,-4.5701,-4.5708,-4.5729,-4.577,-4.5798,-4.5836,-4.593,-4.5933,-4.5974,-4.5989,-4.6,-4.6011,-4.6061,-4.6079,-4.5882,-4.5882,-4.5882,0,0,-4.5576,-4.5588,-4.562,-4.5669,-4.5685,-4.5733,-4.5669,-4.5723,-4.5759,-4.5709,-4.5779,-4.5785,-4.5807,-4.5891,-4.5929,-4.5899,-4.6066,-4.6011,-4.602,-4.6024,-4.6071,-4.609,-4.6107,-4.5888,-4.5887,-4.5886,0,0,-4.5701,-4.5715,-4.5782,-4.5799,-4.5823,-4.5818,-4.5834,-4.585,-4.5852,-4.5922,-4.5886,-4.5927,-4.5999,-4.6016,-4.6035,-4.6165,-4.6135,-4.6178,-4.6253,-4.6302,-4.6317,-4.6331,-4.6378,-4.6395,-4.6188,-4.6188,-4.6189,0,-4.5765,-4.5838,-4.5819,-4.5877,-4.5899,-4.5857,-4.5924,-4.5941,-4.5976,-4.5992,-4.5959,-4.6048,-4.606,-4.6147,-4.6179,-4.6195,-4.6213,-4.6176,-4.6317,-4.633,-4.6343,-4.6387,-4.6405,-4.6193,-4.6193,-4.6192,-4.6192,0,-4.5917,-4.5968,-4.6019,-4.6055,-4.6083,-4.6145,-4.6134,-4.6165,-4.6148,-4.6146,-4.6218,-4.623,-4.627,-4.629,-4.6273,-4.6375,-4.6356,-4.632,-4.6261,-4.6367,-4.6408,-4.6425,-4.6201,-4.6199,-4.6197,-4.6196,0,0,-4.6089,-4.6113,-4.6133,-4.6148,-4.6172,-4.621,-4.6269,-4.6309,-4.6336,-4.6361,-4.641,-4.6471,-4.6438,-4.6459,-4.6444,-4.6487,-4.659,-4.6445,-4.6445,-4.6472,-4.6703,-4.673,-4.675,-4.6569,-4.6573,-4.6575,-4.6701,0,-4.6214,-4.6318,-4.6303,-4.6403,-4.6449,-4.6409,-4.6461,-4.648,-4.648,-4.6519,-4.6518,-4.6562,-4.6515,-4.6527,-4.6568,-4.6569,-4.6636,-4.6559,-4.6614,-4.6617,-4.6611,-4.6772,-4.6801,-4.692,-4.6717,-4.672,-4.6722,0,-4.6375,-4.6407,-4.6512,-4.6528,-4.6547,-4.6594,-4.6629,-4.6666,-4.6687,-4.6683,-4.6707,-4.6683,-4.6741,-4.6681,-4.6761,-4.6709,-4.673,-4.6734,-4.6738,-4.6743,-4.6676,-4.6782,-4.6957,-4.6975,-4.6747,-4.6745,-4.6743,0,-4.649,-4.656,-4.6631,-4.6646,-4.6666,-4.67,-4.671,-4.6727,-4.6752,-4.6782,-4.6797,-4.6834,-4.6854,-4.6882,-4.6868,-4.6825,-4.695,-4.6889,-4.6949,-4.6949,-4.6978,-4.6976,-4.716,-4.6991,-4.699,-4.699,-4.699,0,-4.6632,-4.6698,-4.6684,-4.6728,-4.6801,-4.6781,-4.6853,-4.6857,-4.6873,-4.6917,-4.6883,-4.6925,-4.6904,-4.6944,-4.6933,-4.7001,-4.701,-4.7009,-4.7005,-4.7012,-4.7013,-4.7026,-4.7018,-4.6995,-4.6994,-4.6993,-4.6992,0,-4.6774,-4.6767,-4.6843,-4.6856,-4.6861,-4.6913,-4.6924,-4.6965,-4.6962,-4.7017,-4.7029,-4.7024,-4.7069,-4.7058,-4.7107,-4.71,-4.7185,-4.7171,-4.7179,-4.7176,-4.7237,-4.7231,-4.7436,-4.7462,-4.7276,-4.7278,-4.7279,0,-4.6866,-4.6916,-4.6934,-4.6962,-4.6974,-4.7019,-4.7044,-4.7026,-4.7053,-4.708,-4.7118,-4.716,-4.7193,-4.7267,-4.7267,-4.7304,-4.729,-4.736,-4.7296,-4.7301,-4.7292,-4.729,-4.7294,-4.7373,-4.7375,-4.7376,-4.7378,0,-4.703,-4.7023,-4.7062,-4.7099,-4.713,-4.7158,-4.7183,-4.7207,-4.7191,-4.7223,-4.7269,-4.7295,-4.7345,-4.7387,-4.7421,-4.7429,-4.7401,-4.7398,-4.7414,-4.7422,-4.7424,-4.7424,-4.7214,-4.7393,-4.7392,-4.7391,-4.739,-4.7389,-4.7149,-4.7192,-4.7212,-4.7255,-4.7272,-4.7296,-4.7335,-4.7337,-4.7376,-4.7416,-4.7402,-4.7455,-4.7473,-4.7516,-4.7528,-4.7568,-4.7542,-4.7565,-4.7571,-4.7577,-4.7585,-4.7418,-4.7574,-4.7574,-4.7574,-4.7573,-4.7573,0,-4.7312,-4.7322,-4.7363,-4.7399,-4.7433,-4.7403,-4.7429,-4.7459,-4.7506,-4.7526,-4.7559,-4.7612,-4.7652,-4.7655,-4.7693,-4.7725,-4.7713,-4.7735,-4.7733,-4.7735,-4.7606,-4.7589,-4.7744,-4.7744,-4.7744,-4.7744,-4.7744,-4.7744,-4.74,-4.7471,-4.7467,-4.7545,-4.7554,-4.7607,-4.7624,-4.7645,-4.7661,-4.7722,-4.7755,-4.7757,-4.777,-4.7808,-4.7844,-4.7844,-4.7859,-4.7887,-4.7882,-4.7762,-4.7745,-4.7728,-4.7712,-4.7891,-4.7891,-4.8008,-4.8009,-4.801]},{"header":{"parameterUnit":"m.s-1","parameterCategory":1,"la1":30.2991,"la2":30.254,"lo1":-89.0895,"lo2":-89.0444,"dy":0.0017,"dx":0.0017,"nx":28,"ny":28,"refTime":"2024-10-15T09:00:00:Z","depth":0,"parameterNumber":3,"parameterNumberName":"V-component_of_WINDS"},"data":[0,0,0,0,0,0,0,0,0,0,0,0,0,0,0,0,0,0,0,0,0,0,0,0,0,0,0,0,0,0,0,0,0,0,0,0,0,0,0,0,0,0,0,0,0,0,0,0,0,0,0,0,0,0,0,0,0,0,-7.645,-7.6451,0,-7.6504,-7.6505,-7.6505,-7.6412,-7.6409,-7.6406,-7.6403,-7.6453,-7.6457,-7.6461,0,0,0,0,0,0,0,0,0,0,0,0,0,-7.626,-7.6264,-7.645,-7.6451,-7.6452,-7.6504,-7.6505,-7.6506,-7.6413,-7.6409,-7.6405,-7.6401,-7.6452,-7.6457,-7.6462,0,0,0,0,0,0,0,0,0,0,0,0,0,-7.6331,-7.6266,-7.645,-7.6411,-7.6409,-7.6504,-7.6505,-7.6506,-7.6413,-7.6409,-7.6404,-7.6399,-7.645,-7.6456,-7.6463,-7.6597,0,0,-7.6482,-7.6485,0,0,0,0,0,0,0,0,-7.6328,-7.6338,-7.6416,-7.6414,-7.6411,-7.6447,-7.6456,-7.6536,-7.6414,-7.6411,-7.6403,-7.6397,-7.6454,-7.646,-7.6481,-7.6599,-7.6601,-7.6483,-7.6487,-7.6489,-7.6491,0,0,0,0,0,0,0,-7.6323,-7.6336,-7.6471,-7.6418,-7.6415,-7.639,-7.6395,-7.6471,-7.6458,-7.6411,-7.6405,-7.6413,-7.6452,-7.6475,-7.6481,-7.6602,-7.6483,-7.6488,-7.6492,-7.6495,-7.6832,-7.6837,0,0,0,0,0,0,-7.6323,-7.6332,-7.647,-7.6473,-7.6357,-7.6397,-7.6402,-7.644,-7.6457,-7.6456,-7.6417,-7.6408,-7.6466,-7.6474,-7.6482,-7.664,-7.6489,-7.6495,-7.6499,-7.6827,-7.6833,-7.6839,0,0,0,0,0,0,-7.632,-7.6337,-7.6467,-7.6401,-7.6416,-7.6405,-7.6448,-7.6444,-7.6466,-7.6462,-7.6458,-7.6442,-7.6463,-7.6473,-7.6569,-7.6641,-7.6498,-7.6504,-7.6821,-7.6829,-7.6836,-7.6958,0,0,0,0,0,0,-7.6315,-7.6336,-7.6388,-7.6403,-7.642,-7.6555,-7.6453,-7.6448,-7.6478,-7.6467,-7.6485,-7.6483,-7.646,-7.656,-7.6576,-7.6647,-7.6509,-7.6815,-7.6825,-7.6834,-7.6947,-7.6969,-7.6987,0,0,0,0,0,-7.6308,-7.6419,-7.6391,-7.6408,-7.6485,-7.656,-7.6569,-7.6541,-7.6484,-7.6536,-7.6533,-7.6483,-7.6631,-7.6571,-7.6587,-7.6662,-7.681,-7.6822,-7.6833,-7.6938,-7.6964,-7.6986,0,0,0,0,0,0,-7.6411,-7.642,-7.6389,-7.6509,-7.6534,-7.6544,-7.6608,-7.657,-7.6611,-7.6599,-7.6561,-7.6565,-7.6669,-7.6674,-7.6608,-7.6792,-7.671,-7.6726,-7.6785,-7.681,-7.6829,-7.6825,-7.6514,0,0,0,0,0,-7.6448,-7.651,-7.6513,-7.6618,-7.6633,-7.6619,-7.665,-7.6626,-7.6651,-7.6661,-7.6664,-7.6689,-7.674,-7.6775,-7.6822,-7.6947,-7.6949,-7.7007,-7.7027,-7.7043,-7.7057,-7.7123,-7.7148,-7.6877,-7.6877,-7.6876,0,0,-7.6524,-7.6536,-7.6577,-7.6639,-7.6656,-7.6719,-7.6628,-7.6699,-7.6745,-7.667,-7.6762,-7.6766,-7.679,-7.6901,-7.695,-7.6909,-7.7132,-7.7058,-7.7071,-7.7076,-7.7137,-7.7163,-7.7186,-7.6885,-7.6883,-7.6882,0,0,-7.6695,-7.6711,-7.68,-7.682,-7.6847,-7.6837,-7.6859,-7.6874,-7.6875,-7.6966,-7.6912,-7.6965,-7.7055,-7.7074,-7.7096,-7.7275,-7.723,-7.7291,-7.7395,-7.746,-7.7481,-7.75,-7.7563,-7.7587,-7.7305,-7.7305,-7.7305,0,-7.6785,-7.688,-7.685,-7.6926,-7.6954,-7.6891,-7.698,-7.7,-7.7041,-7.7061,-7.7015,-7.7127,-7.7139,-7.7253,-7.7297,-7.7317,-7.7339,-7.7289,-7.7481,-7.7499,-7.7516,-7.7576,-7.76,-7.7312,-7.7311,-7.7311,-7.731,0,-7.699,-7.7057,-7.7125,-7.7169,-7.7205,-7.7286,-7.7267,-7.7306,-7.728,-7.7274,-7.7367,-7.7379,-7.7428,-7.7453,-7.7427,-7.7565,-7.7538,-7.7487,-7.7404,-7.755,-7.7606,-7.7629,-7.7323,-7.732,-7.7318,-7.7316,0,0,-7.7228,-7.7254,-7.728,-7.7299,-7.7325,-7.7375,-7.7453,-7.7502,-7.7537,-7.7567,-7.7631,-7.7709,-7.7662,-7.7687,-7.7662,-7.7719,-7.786,-7.766,-7.766,-7.7697,-7.8011,-7.805,-7.8077,-7.783,-7.7834,-7.7838,-7.8009,0,-7.7398,-7.7535,-7.751,-7.7643,-7.7704,-7.7645,-7.7713,-7.7735,-7.7732,-7.7781,-7.7776,-7.7833,-7.7766,-7.7781,-7.7835,-7.7831,-7.7922,-7.7818,-7.7888,-7.7891,-7.7884,-7.8106,-7.8147,-7.8309,-7.8031,-7.8035,-7.8037,0,-7.7615,-7.7656,-7.7796,-7.7812,-7.7837,-7.7899,-7.7942,-7.799,-7.8014,-7.8007,-7.8035,-7.8,-7.8076,-7.7992,-7.8096,-7.8026,-7.8053,-7.8055,-7.8061,-7.8066,-7.7973,-7.8118,-7.8359,-7.8384,-7.8071,-7.8069,-7.8066,0,-7.7775,-7.7864,-7.7959,-7.7977,-7.7999,-7.8043,-7.8054,-7.8073,-7.8105,-7.8142,-7.8161,-7.8206,-7.8231,-7.8266,-7.8243,-7.8184,-7.835,-7.8264,-7.8346,-7.8347,-7.8383,-7.8381,-7.8633,-7.8401,-7.8401,-7.84,-7.84,0,-7.7967,-7.8055,-7.8031,-7.809,-7.8186,-7.8155,-7.825,-7.8254,-7.8271,-7.8328,-7.8279,-7.8333,-7.83,-7.835,-7.8333,-7.8421,-7.8432,-7.8428,-7.8422,-7.8433,-7.8434,-7.845,-7.8438,-7.8406,-7.8405,-7.8404,-7.8403,0,-7.8162,-7.8149,-7.8249,-7.8262,-7.8267,-7.8338,-7.8347,-7.8401,-7.8394,-7.8467,-7.8482,-7.847,-7.8528,-7.8508,-7.8569,-7.8557,-7.867,-7.8649,-7.8663,-7.8657,-7.874,-7.8733,-7.9011,-7.9045,-7.8791,-7.8794,-7.8796,0,-7.8286,-7.8353,-7.8373,-7.8409,-7.8424,-7.8482,-7.8514,-7.8486,-7.8521,-7.8553,-7.8603,-7.8656,-7.8697,-7.8791,-7.8787,-7.8834,-7.8814,-7.8908,-7.882,-7.8829,-7.8815,-7.8812,-7.8818,-7.8926,-7.8929,-7.8931,-7.8933,0,-7.8508,-7.8499,-7.8548,-7.8596,-7.8636,-7.8672,-7.8703,-7.8734,-7.8708,-7.8749,-7.8809,-7.8841,-7.8904,-7.8957,-7.8999,-7.9007,-7.8966,-7.8961,-7.8982,-7.8993,-7.8999,-7.8997,-7.8711,-7.8954,-7.8952,-7.8951,-7.895,-7.8949,-7.8671,-7.8727,-7.8751,-7.8808,-7.8828,-7.8858,-7.891,-7.891,-7.8959,-7.901,-7.8989,-7.9058,-7.9078,-7.913,-7.9145,-7.9196,-7.916,-7.9191,-7.9198,-7.9207,-7.9217,-7.8991,-7.9204,-7.9203,-7.9202,-7.9202,-7.9201,0,-7.889,-7.8903,-7.8955,-7.9001,-7.9046,-7.9004,-7.9036,-7.9075,-7.9137,-7.916,-7.9203,-7.927,-7.9322,-7.9322,-7.9369,-7.9411,-7.9393,-7.9424,-7.9421,-7.9423,-7.9247,-7.9224,-7.9438,-7.9438,-7.9438,-7.9437,-7.9437,-7.9437,-7.901,-7.9103,-7.9097,-7.9199,-7.921,-7.9278,-7.93,-7.9327,-7.9346,-7.9424,-7.9468,-7.9468,-7.9482,-7.953,-7.9575,-7.9573,-7.9593,-7.9632,-7.9623,-7.9459,-7.9436,-7.9413,-7.9391,-7.9636,-7.9637,-7.9795,-7.9796,-7.9797]}]]